Content
SEND FEEDBACK

Daily
Averages
Monthly
Summary
United States of America

ALPINE MEADOWS, CALIFORNIA


Home > North America > United States > California
Elevation: 6230 feet     Latitude: 39 12N     Longitude: 120 14W

WEATHER
 
SELECT A DAY
Number of Records: 282,180;   Date Range: 1/1/95 - 7/23/14
 
SHARE

PRINT THIS DATA

[ ← Previous Day ]
WEATHER ALMANAC - MARCH 24, 2014
[ Next Day → ]
[ °C ]   °F
Weather ElementAverageHighLow
Temperature35.2 °F62.6 °F (12:50 pm)21.2 °F (3:55 am)
Dewpoint21.5 °F28.4 °F (12:35 am)10.4 °F (12:50 pm)
Humidity67.7 %100 % (3:55 am)13 % (12:50 pm)
Barometer30.22 in30.28 in (7:50 am)30.15 in (11:55 pm)
Wind Speed2.5 mph11.5 mph (2:50 pm)
Wind Gust19.6 mph (1:45 pm)
Weather ElementAverage
Visibility7.7 mi
Wind DirectionENE (79 °)

Weather ElementTotal
Precipitation---
Heating Degree Days23.1 (Base 65)
Averaged from 48 records on March 24, 2014
WEATHER CONDITIONS BREAKOUT
WIND DIRECTION BREAKOUT
WEATHER BY HOUR - MARCH 24, 2014
[ °C ]   °F
Local TimeTemperatureDewpointHumidityBarometerVisibilityWind DirectionWind SpeedGust SpeedPrecipitationEventsConditions
12:35 AM30.2 °F28.4 °F93 %30.27 in10.0 miCalmClear
12:55 AM30.2 °F26.6 °F86 %30.27 in10.0 miCalmClear
1:15 AM26.6 °F24.8 °F93 %30.27 in10.0 miCalmClear
1:35 AM28.4 °F26.6 °F93 %30.27 in10.0 miCalmClear
1:55 AM26.6 °F24.8 °F93 %30.27 in1.5 miCalmMist
2:15 AM26.6 °F24.8 °F93 %30.27 in2.0 miCalmClear
2:35 AM26.6 °F24.8 °F93 %30.27 in10.0 miCalmClear
2:55 AM23.0 °F21.2 °F93 %30.26 in0.5 miCalmFogLight Freezing Fog
3:15 AM26.6 °F24.8 °F93 %30.26 in2.0 miCalmScattered Clouds
3:35 AM26.6 °F24.8 °F93 %30.26 in0.5 miCalmFogLight Freezing Fog
3:55 AM21.2 °F21.2 °F100 %30.26 in0.5 miCalmFogLight Freezing Fog
4:15 AM23.0 °F23.0 °F100 %30.26 in1.0 miCalmMostly Cloudy
4:35 AM23.0 °F23.0 °F100 %30.26 in4.0 miCalmClear
4:55 AM23.0 °F23.0 °F100 %30.26 in0.5 miCalmFogLight Freezing Fog
5:15 AM21.2 °F21.2 °F100 %30.26 in1.2 miCalmScattered Clouds
5:35 AM21.2 °F21.2 °F100 %30.26 in1.5 miCalmMist
5:55 AM21.2 °F21.2 °F100 %30.26 in1.0 miCalmMist
6:15 AM21.2 °F19.4 °F93 %30.27 in2.5 miCalmClear
6:35 AM23.0 °F21.2 °F93 %30.27 in10.0 miCalmClear
6:50 AM21.2 °F19.4 °F93 %30.26 in10.0 miCalmClear
7:50 AM21.2 °F19.4 °F93 %30.28 in10.0 miCalmClear
8:50 AM28.4 °F26.6 °F93 %30.28 in10.0 miCalmClear
9:50 AM35.6 °F26.6 °F70 %30.28 in10.0 miCalmPartly Cloudy
10:50 AM46.4 °F26.6 °F46 %30.27 in10.0 miCalmPartly Cloudy
11:45 AM57.2 °F19.4 °F23 %30.25 in10.0 miNW (310°)4.6 mphPartly Cloudy
12:50 PM62.6 °F10.4 °F13 %30.24 in10.0 miWest (260°)9.2 mph16.1 mphPartly Cloudy
1:45 PM62.6 °F12.2 °F14 %30.23 in10.0 miWSW (250°)9.2 mph19.6 mphPartly Cloudy
2:50 PM62.6 °F14.0 °F15 %30.21 in10.0 miWest (260°)11.5 mphPartly Cloudy
3:50 PM62.6 °F12.2 °F14 %30.19 in10.0 miWest (270°)9.2 mphPartly Cloudy
5:45 PM60.8 °F17.6 °F19 %30.17 in10.0 miSSW (210°)11.5 mphScattered Clouds
6:15 PM59.0 °F19.4 °F22 %30.17 in10.0 miWSW (240°)8.1 mphClear
6:35 PM55.4 °F19.4 °F25 %30.17 in10.0 miSW (230°)9.2 mphClear
6:55 PM53.6 °F19.4 °F26 %30.17 in10.0 miWSW (240°)8.1 mphClear
7:15 PM50.0 °F19.4 °F30 %30.17 in10.0 miWSW (240°)8.1 mphClear
7:35 PM44.6 °F19.4 °F37 %30.17 in10.0 miSW (230°)6.9 mphClear
7:55 PM41.0 °F21.2 °F45 %30.17 in10.0 miSW (220°)4.6 mphClear
8:15 PM39.2 °F23.0 °F52 %30.18 in10.0 miSSE (160°)4.6 mphClear
8:35 PM33.8 °F21.2 °F60 %30.18 in10.0 miSouth (170°)4.6 mphClear
8:55 PM33.8 °F23.0 °F65 %30.18 in10.0 miSE (140°)5.8 mphClear
9:15 PM37.4 °F23.0 °F56 %30.17 in10.0 miCalmClear
9:35 PM35.6 °F23.0 °F60 %30.17 in10.0 miWSW (240°)3.5 mphClear
9:55 PM32.0 °F23.0 °F69 %30.17 in10.0 miCalmClear
10:15 PM32.0 °F21.2 °F64 %30.17 in10.0 miCalmClear
10:35 PM33.8 °F21.2 °F60 %30.17 in10.0 miESE (120°)3.5 mphClear
10:55 PM30.2 °F21.2 °F69 %30.17 in10.0 miCalmClear
11:15 PM28.4 °F21.2 °F74 %30.16 in10.0 miCalmClear
11:35 PM30.2 °F21.2 °F69 %30.16 in10.0 miCalmClear
11:55 PM30.2 °F19.4 °F64 %30.15 in10.0 miCalmClear
Hourly data recorded from KTRK, located miles away from Alpine Meadows, California







STORIES FROM OUR PARTNERS